canlı casino siteleri, live casino sites, lisanslı casino siteleri, wordpress casino theme bet reviews tipobet canlı bahis siteleri tempobet, 1xbet giriş, kiev escort, betist, bitcoin ile bahis, bitcoin ile bahis para yatırma 자유게시판 - 요청만 드려서 죄송합니다만...

요청만 드려서 죄송합니다만...

조하늘 2018.06.04 19:03 조회 수 : 197

예전 콘서트 영상들은 전부 없어진건가요?

구할 방법 없는건가요...?

번호 제목 글쓴이 날짜 조회 수
공지 미스치루 공식 구글드라이브 개설(?) [18] 지원검 2017.01.15 6376
6573 혹시 팬클럽 탈퇴 이후에도 회보 계속 오신 경우 있으신가요?? [1] 미스치루☞ 2018.09.14 98
6572 앨범 발매 3주도 안남았는데 타이틀, 수록곡 정보가 안나오네요 [2] 미스치루☞ 2018.09.14 108
6571 Your Song 때문에 팬클 가입 할려고 하는데요.. [2] 키미 2018.09.07 196
6570 이번 공연 본인확인 제대로 할 작정인가보네요 ㄷㄷ [18] owen 2018.09.02 334
6569 여름이 끝나가니 이 노래를 들어봅시다 [2] 미스치루☞ 2018.08.29 127
6568 25주년 Thanksgiving 자막 만들어 주실 능력자분 부탁 좀 드릴께요 기미가쓰끼 2018.08.26 79
6567 요새 갑자기 빠진 미스치루 노래? [9] Möbius 2018.08.20 212
6566 일본에서 미스치루 가라오케회 다녀왔습니다 [8] 버뮤다 2018.08.19 186
6565 미스치루 회지 나눔(?) 받아주실 분을 찾습니다. 본보야쥬 2018.08.19 79
6564 이번 공연 일반 추첨 하시는분들 계시나요? [6] Brack 2018.08.16 151
6563 25주년 공연 다시 보고있는데 카메라에 저도 잡혔네요ㅋㅋㅋ [2] 미스치루☞ 2018.08.13 150
6562 이번 투어, 다들 어느 공연 준비하시나요? [4] tekken 2018.08.11 150
6561 정말오랜만에회원사진란을다시봤는데 [1] 시리우스 2018.08.10 81
6560 오랜만이에요~!!새삼스럽지만 최애곡 [2] 시리우스 2018.08.10 67
6559 해외 공연은 처음 아닌가요? [4] 유자 2018.08.09 193
6558 이번앨범은 DVD나 USB첨부 없이 CD반 1사양으로 나오네요 [4] 미스치루☞ 2018.08.02 208
6557 드디어 올해 콘서트 일정 나왔네요^^ [11] 365미스치루 2018.08.02 267
6556 신곡 singles 커버 링크(short ver.) [1] hitomi 2018.07.20 168
6555 신곡 Mr.Children - SINGLES / 3분기일드 하게타카예고편 [2] 유자 2018.07.10 352
6554 お伽話, こころ음원추출 공유 [1] 유자 2018.07.09 160
6553 25주년 재인코딩(용량다운) [4] diarmate 2018.07.04 200
6552 25주년 공연 인코딩했습니당 [28] 사다킹 2018.07.02 249
» 요청만 드려서 죄송합니다만... [3] 조하늘 2018.06.04 197
6550 혹시 FC가입 하신 분 계신가요? 배대지 주소 써도 괜찮나요 [1] 미스치루☞ 2018.05.27 151
6549 내일부로 모든 싱글과 앨범이 각종 음원사이트에 다운로드/스트리밍 해금됩니다.+ 26주년 [2] 미스치루☞ 2018.05.09 352
6548 혹시 예전에 올라와있던 미스치루 기타프로악보 갖고계신분있나요? [3] 조하늘 2018.04.24 75
6547 혹시 ap bank fes '18 가시는분 계신가요? [1] zinn 2018.04.16 194
6546 코드블루 극장판 주제가 HANABI 결정 [2] 미스치루☞ 2018.04.11 289
6545 4월의 반가운 소식 [8] 지원검 2018.04.08 369
6544 25주년 인코딩된 영상 공유 부탁드립니다. [2] Windel 2018.04.05 233
CLOSE